Weather in Mahabalipuram

India     12°37′41″N   80°11′40″E
temp.,
°C
wind,
m/s
gust,
m/s
humid.,
%
clouds,
%
prec.,
mm/h
press.,
hPa
HPBL,
m
19 may, wed
wed1923:30+30s68805 0.0 1007689
02:30+29ssw6878100 0.7 1006706
05:30+29s797935 0.9 1006659
08:30+31s777091 0.4 1008971
11:30+32s8767100 0.4 10071014
14:30+32sse8766100 0.2 1004801
17:30+31sse8974100 0.2 1004625
20:30+30s7107880 0.0 1006585
20 may, thu
thu2023:30+30s8117782 0.8 1006637
02:30+29ssw7107695 0.0 1005785
05:30+30sw587397 0.1 1006612
08:30+31sw345695 0.1 1008505
11:30+33sse5454100 0.1 10061143
14:30+32sse876364 0.0 1004633
17:30+31sse786776 0.0 1003478
20:30+31sse687183 1.5 1006357
21 may, fri
fri2123:30+30sw4668100 6.5 1007346
02:30+26w71178100 0.6 1005379
05:30+27wsw5974100 0.9 1007559
08:30+30wsw6863100 0.0 1008719
11:30+33sw575394 0.0 1007831
14:30+34sw564965 0.0 10041268
17:30+32s8959100 0.0 1005649
20:30+31ssw5763100 0.6 1007397
22 may, sat
sat2223:30+30sw5764100 1.4 1007382
02:30+29wsw4667100 1.0 1005370
05:30+29ssw5669100 1.3 1006335
08:30+30sw4467100 0.4 1008409
11:30+32sw4556100 0.4 1007793
14:30+33s445797 0.1 1004872
17:30+30s676863 1.1 1004302
20:30+26sw101286100 1.1 1007326
23 may, sun
sun2323:30+27w81275100 2.6 1007434
02:30+27sw71172100 0.1 1004452
05:30+27sw81373100 0.1 1005477
08:30+29sw8117091 0.0 1007618
11:30+32sw675896 0.0 1006843
14:30+34ssw465135 0.0 10031289
17:30+32s776486 0.1 1003519
20:30+31ssw576961 0.4 1005304